User: anonymous   Login
Location: *
(40.7765°S, 106.5327°E)
Time: 10:30:52
(UTC+00:00)
Language:

IRIDIUM 106 - Orbit

View from above orbital plane
View from above orbital plane
View from above satellite
View from above satellite

Ground track
Ground track

The orbit data is extracted from the following two-line orbital elements,

1 41917U 17003A   22228.28317790  .00000180  00000-0  57238-4 0  9994
2 41917  86.3989 313.9340 0002170 101.8257 258.3182 14.34218684292412
Epoch (UTC): 16 August 2022 06:47:46
Eccentricity: 0.0002170
inclination: 86.3989°
perigee height: 776 km
apogee height: 779 km
right ascension of ascending node: 313.9340°
argument of perigee: 101.8257°
revolutions per day: 14.34218684
mean anomaly at epoch: 258.3182°
orbit number at epoch: 29241

The dashed part of the orbit path shows where the satellite is in the earth's shadow,  

DLR